Regional Weather Roundup
Issued by NWS

Home | Current Version | Previous Version | Text Only | Print | Product List | Glossary On
Versions: 1 2 3 4 5 6 7 8 9 10 11 12 13 14 15 16 17 18 19 20 21 22 23 24 25 26 27 28 29 30 31 32 33 34 35 36 37 38 39 40 41 42 43 44 45 46 47 48 49 50
000
ASUS43 KDTX 251710
RWRMI
MICHIGAN HOURLY REGIONAL WEATHER ROUNDUP
NATIONAL WEATHER SERVICE DETROIT/PONTIAC MI
100 PM EDT WED MAY 25 2016

NOTE: "FAIR" INDICATES FEW OR NO CLOUDS BELOW 12,000 FEET WITH NO
SIGNIFICANT WEATHER AND/OR OBSTRUCTION TO VISIBILITY.

MIZ047>049-052>055-059>063-066>070-074>076-081>083-251800-
SOUTHEAST LOWER MICHIGAN

CITY           SKY/WX    TMP DP  RH WIND       PRES   REMARKS
ADRIAN         CLOUDY    81  58  45 SW16G22   30.07F
ALMA           SUNNY     82  61  49 MISG      30.03F
ANN ARBOR      SUNNY     81  61  50 S12       30.06F
BAD AXE        CLOUDY    80  55  42 SW5       30.06F
CARO           PTSUNNY   82  63  53 W6        30.03F
DETROIT CITY   SUNNY     82  56  40 SW14G22   30.06F
DETROIT        MOSUNNY   84  58  40 S12       30.07F
FLINT          SUNNY     86  59  39 CALM      30.04F
GROSSE ILE     SUNNY     75  59  57 S10       30.06F
HILLSDALE      MOSUNNY   80  50  34 S10       30.08S
HOWELL         SUNNY     83  56  40 SW8       30.05F

CITY           SKY/WX    TMP DP  RH WIND       PRES   REMARKS
JACKSON        MOSUNNY   82  59  45 S14G20    30.06F
LAMBERTVILLE   PTSUNNY   82  57  42 SW9       30.08F
LANSING        SUNNY     82  60  47 SW7       30.05F
LAPEER         FAIR      83  52  33 W12       30.06F
MASON          PTSUNNY   82  59  46 SW6       30.05F
MONROE         MOSUNNY   84  60  43 SW13G18   30.06F
MT. CLEMENS    MOSUNNY   85  57  39 SW9       30.05F
PONTIAC        MOSUNNY   83  56  39 W9        30.05F
PORT HOPE        N/A     58  53  84 E6        30.07R
PORT HURON     MOSUNNY   82  55  39 SW7       30.06F
TRI CITIES     SUNNY     84  62  47 W8        30.03F
MIDLAND        FAIR      81  60  48 CALM      30.02F
TROY           SUNNY     85  54  35 SW13      30.07F
SAGINAW HB     PTSUNNY   82  59  44 SW10      30.03F
$$
MIZ043>046-050>051-056>058-064>065-071>073-077>080-251800-
SOUTHWEST LOWER MICHIGAN

CITY           SKY/WX    TMP DP  RH WIND       PRES   REMARKS
BATTLE CREEK   MOSUNNY   80  60  50 S14       30.05F
BENTON HARBOR  PTSUNNY   80  62  54 VRB3      30.01S
BIG RAPIDS     SUNNY     79  61  53 CALM      30.02F
COLDWATER      PTSUNNY   80  57  44 S9        30.05F
FREMONT        FAIR      81  60  47 S9        30.01F
HOLLAND        SUNNY     82  64  54 SW9       30.01F
GRAND RAPIDS   MOSUNNY   86  61  42 S10       30.02F
IONIA          FAIR      83  57  41 S8        30.02F
KALAMAZOO      MOSUNNY   82  60  47 VRB7      30.03F
LUDINGTON      MOSUNNY   69  56  62 W7        30.02S
MARSHALL       SUNNY     83  60  46 SW9       30.04F
MOUNT PLEASANT MOSUNNY   82  63  52 S9        30.02F
MUSKEGON       MOSUNNY   79  60  52 VRB6      30.02F
SOUTH HAVEN    PTSUNNY   79  63  56 W7        30.01S
$$
MIZ016>042-251800-
NORTHERN LOWER MICHIGAN

CITY           SKY/WX    TMP DP  RH WIND       PRES   REMARKS
ALPENA         MOSUNNY   77  58  51 VRB6      30.06F
BEAVER ISLAND  CLOUDY    59  56  89 E9        30.08S
BELLAIRE       SUNNY     76  59  55 SW3       30.03F
CADILLAC       MOSUNNY   81  57  42 W6        30.03S
CHARLEVOIX     MOSUNNY   66  61  85 NE8       30.08S
FRANKFORT      CLOUDY    75  61  61 NE6       30.02S
GAYLORD        MOSUNNY   76  59  55 S6        30.05F
GRAYLING       SUNNY     83  55  37 SW8       30.04F
HARBOR SPRINGS CLOUDY    63  58  86 E8        30.07F
HOUGHTON LAKE  MOSUNNY   82  56  40 W6        30.04F
MANISTEE       MOSUNNY   75  57  53 W8        30.02S
OSCODA         SUNNY     71  55  58 E9        30.07S
PELLSTON       CLOUDY    60  56  86 E8        30.08F
ROGERS CITY    CLOUDY    59  54  83 N5        30.10S
TRAVERSE CITY  PTSUNNY   66  56  70 NE7       30.04S
$$
MIZ007>008-015-251800-
EASTERN UPPER MICHIGAN

CITY           SKY/WX    TMP DP  RH WIND       PRES   REMARKS
KINROSS          N/A     64  57  77 CALM      30.09F
MACKINAC ISLAN CLOUDY    58  58 100 E5        30.10R
NEWBERRY       CLOUDY    60  58  93 NE7       30.09S
S. S. MARIE    SUNNY     68  55  63 SE7       30.08
MUNISING         N/A     49  45  86 NE5       30.10S
$$
MIZ004>006-011>014-085-251800-
CENTRAL UPPER MICHIGAN

CITY           SKY/WX    TMP DP  RH WIND       PRES   REMARKS
MANISTIQUE     CLOUDY    59  57  94 SE6       30.09R
ESCANABA       CLOUDY    64  55  72 E10       30.07R
MENOMINEE      CLOUDY    61  54  77 E14       30.07S
SAWYER-GWINN   CLOUDY    55  50  82 E7        30.09F
$$
MIZ001>003-009>011-084-251800-
WESTERN UPPER MICHIGAN

CITY           SKY/WX    TMP DP  RH WIND       PRES   REMARKS
IRON MOUNTAIN  PTSUNNY   62  54  74 SE5       30.06S
HOUGHTON       CLOUDY    52  46  80 E15       30.08S
COPPER HARBOR    N/A     55  46  71 VRB7      30.10F
IRONWOOD       MOSUNNY   68  57  68 E9        29.99S
$$

ABBREVIATIONS USED IN REMARKS
   TC - TEMPERATURE IN CELSIUS
  WCI - WIND CHILL INDEX
   HX - HEAT INDEX
  VSB - VISIBILITY





USA.gov is the U.S. government's official web portal to all federal, state and local government web resources and services.